Location: Clanezzo
(45.7500°N, 9.6000°E)
Time: 08:54:00
(UTC+00:00)

Gbstr 26 Del rocket - Pass Details

Date: 01 October 2021
Orbit: 492 x 1263 km, 51.8° (Epoch: 18 October)

Event Time Altitude Azimuth Distance (km) Brightness Sun altitude
Rises 18:59:24 0° 245° (WSW) 3,784 7.8 -21.1°
Reaches altitude 10° 19:01:55 10° 246° (WSW) 2,928 7.1 -21.6°
Maximum altitude 19:09:14 81° 335° (NNW) 1,221 4.5 -22.8°
Enters shadow 19:14:29 25° 60° (ENE) 2,315 5.6 -23.6°
